Home   Weather   Memmingen   Past weeks

Flag for Germany Past Weather in Memmingen, Bavaria, Germany — Yesterday and Last 2 Weeks

Now
46 °F

Partly cloudy.


Feels Like: 41 °F
Forecast: 42 / 55 °F
Wind: 10 mph from Southwest

Location: Laupheim Airport

Current Time: Feb 22, 2017 at 5:11:46 am

Latest Report: Feb 22, 2017 at 4:20 am


Visibility: N/A

Pressure: 30.01 "Hg (27.89 "Hg at 602m altitude)

Humidity: 87%

Dew Point: 43 °F

Location of MemmingenLocation

Past Weather in Memmingen — Graph

°F

Memmingen Temperature Yesterday

Maximum temperature yesterday: 48 °F (at 11:44 am)
Minimum temperature yesterday: 43 °F (at 12:05 am)
Average temperature yesterday: 46 °F

High & Low Weather Summary for the Past Weeks

 TemperatureHumidityPressure
High55 °F (Feb 16, 4:20 pm)100% (Feb 7, 3:20 am)30.54 "Hg (Feb 7, 3:20 am)
Low23 °F (Feb 11, 4:20 am)41% (Feb 16, 4:20 pm)29.98 "Hg (Feb 7, 1:20 pm)
Average34 °F87%30.22 "Hg
* Reported Feb 7 3:20 am — Feb 22 3:20 am, Memmingen, Weather by CustomWeather, © 2017

Note: Actual official high and low records may vary slightly from our data, if they occured in-between our weather recording intervals... More about our weather records

Advertising

Memmingen Weather History for the Previous 24 Hours

Scroll right to see more
 ConditionsComfort  
Time TempWeatherWind HumidityBarometerVisibility
3:20 am
Wed, Feb 22
46 °FPassing clouds.9 mph87%30.01 "HgN/A
2:20 am46 °FPassing clouds.13 mph87%30.04 "HgN/A
1:20 am46 °FPassing clouds.13 mph87%30.07 "HgN/A
12:20 am46 °FPassing clouds.13 mph93%30.07 "HgN/A
12:00 am48 °FPassing clouds.13 mph87%30.07 "HgN/A
11:20 pm
Tue, Feb 21
48 °FPassing clouds.12 mph87%30.07 "HgN/A
11:05 pm48 °FPassing clouds.12 mph87%30.07 "HgN/A
10:20 pm48 °FPassing clouds.10 mph87%30.07 "HgN/A
9:20 pm48 °FPassing clouds.9 mph87%30.07 "HgN/A
8:47 pm48 °FPartly cloudy.9 mph87%30.07 "HgN/A
8:20 pm48 °FPartly cloudy.8 mph87%30.07 "HgN/A
7:20 pm48 °FPassing clouds.10 mph87%30.07 "HgN/A
6:20 pm48 °FLight rain. Partly cloudy.8 mph87%30.07 "HgN/A
5:20 pm48 °FLight rain. Broken clouds.9 mph94%30.07 "HgN/A
4:20 pm48 °FLight rain. More clouds than sun.12 mph87%30.07 "Hg5 mi
3:20 pm48 °FDrizzle. Broken clouds.15 mph87%30.04 "HgN/A
2:20 pm48 °FDrizzle. Broken clouds.15 mph87%30.04 "Hg5 mi
1:20 pm48 °FMore clouds than sun.18 mph87%30.04 "HgN/A
12:20 pm48 °FBroken clouds.17 mph87%30.07 "HgN/A
11:44 am48 °FBroken clouds.18 mph87%30.07 "Hg4 mi
11:20 am46 °FFog.17 mph87%30.07 "Hg3 mi
10:38 am46 °FPartly sunny.16 mph87%30.04 "Hg5 mi
10:20 am45 °FLight rain. Partly sunny.16 mph93%30.04 "Hg4 mi
9:20 am45 °FRain. Low clouds.14 mph93%30.04 "HgN/A
8:20 am45 °FLight rain. Low clouds.15 mph93%30.04 "HgN/A
7:20 am45 °FLow clouds.15 mph87%30.04 "HgN/A
6:20 am45 °FPassing clouds.13 mph87%30.07 "HgN/A
5:20 am45 °FPassing clouds.15 mph87%30.07 "HgN/A
Weather by CustomWeather, © 2017

See weather overviewHow to use our weather pages